Date_Time,Julian_Date,Latitude,Longitude,Instrument_Depth,U,V,Speed,Direction
(yyyy-mm-dd hh:mn:ss UTC),(JD),(+ deg. North),(+ deg. East),(m),(cm/s),(cm/s),(cm/s),(deg True)
1993-03-23 17:30:00 UTC,2449070.229167,27.2836,-96.9811,0011,-1.02,-14.53,14.5658,184.0156
1993-03-23 18:00:00 UTC,2449070.250000,27.2836,-96.9811,0011,-2.52,-17.91,18.0864,188.0092
1993-03-23 18:30:00 UTC,2449070.270833,27.2836,-96.9811,0011,-3.21,-16.51,16.8192,191.0026
1993-03-23 19:00:00 UTC,2449070.291667,27.2836,-96.9811,0011,-1.34,-15.26,15.3187,185.0184
1993-03-23 19:30:00 UTC,2449070.312500,27.2836,-96.9811,0011,-1.42,-16.27,16.3319,184.9880
1993-03-23 20:00:00 UTC,2449070.333333,27.2836,-96.9811,0011,0.00,-18.58,18.5800,180.0000
1993-03-23 20:30:00 UTC,2449070.354167,27.2836,-96.9811,0011,1.20,-22.83,22.8615,176.9912
1993-03-23 21:00:00 UTC,2449070.375000,27.2836,-96.9811,0011,-1.70,-24.31,24.3694,184.0002
1993-03-23 21:30:00 UTC,2449070.395833,27.2836,-96.9811,0011,-6.50,-26.08,26.8778,193.9949
1993-03-23 22:00:00 UTC,2449070.416667,27.2836,-96.9811,0011,-9.31,-28.66,30.1342,197.9960
1993-03-23 22:30:00 UTC,2449070.437500,27.2836,-96.9811,0011,-16.39,-30.82,34.9071,208.0039
1993-03-23 23:00:00 UTC,2449070.458333,27.2836,-96.9811,0011,-16.15,-30.38,34.4059,207.9951
1993-03-23 23:30:00 UTC,2449070.479167,27.2836,-96.9811,0011,-14.31,-29.35,32.6527,205.9922
1993-03-24 00:00:00 UTC,2449070.500000,27.2836,-96.9811,0011,-15.83,-28.56,32.6537,208.9984
1993-03-24 00:30:00 UTC,2449070.520833,27.2836,-96.9811,0011,-15.69,-29.50,33.4130,208.0069
1993-03-24 01:00:00 UTC,2449070.541667,27.2836,-96.9811,0011,-12.14,-30.04,32.4003,202.0050
1993-03-24 01:30:00 UTC,2449070.562500,27.2836,-96.9811,0011,-11.43,-29.78,31.8982,200.9975
1993-03-24 02:00:00 UTC,2449070.583333,27.2836,-96.9811,0011,-12.69,-33.07,35.4212,200.9934
1993-03-24 02:30:00 UTC,2449070.604167,27.2836,-96.9811,0011,-11.94,-34.67,36.6684,199.0032
1993-03-24 03:00:00 UTC,2449070.625000,27.2836,-96.9811,0011,-8.69,-34.84,35.9074,194.0053
1993-03-24 03:30:00 UTC,2449070.645833,27.2836,-96.9811,0011,-6.19,-35.12,35.6613,189.9959
1993-03-24 04:00:00 UTC,2449070.666667,27.2836,-96.9811,0011,-0.64,-36.41,36.4156,181.0070
1993-03-24 04:30:00 UTC,2449070.687500,27.2836,-96.9811,0011,1.22,-34.89,34.9113,177.9973
1993-03-24 05:00:00 UTC,2449070.708333,27.2836,-96.9811,0011,-5.80,-32.90,33.4073,189.9980
1993-03-24 05:30:00 UTC,2449070.729167,27.2836,-96.9811,0011,-11.02,-33.91,35.6557,198.0030
1993-03-24 06:00:00 UTC,2449070.750000,27.2836,-96.9811,0011,-14.02,-34.70,37.4253,202.0004
1993-03-24 06:30:00 UTC,2449070.770833,27.2836,-96.9811,0011,-16.98,-31.94,36.1730,207.9961
1993-03-24 07:00:00 UTC,2449070.791667,27.2836,-96.9811,0011,-15.47,-27.90,31.9019,209.0075
1993-03-24 07:30:00 UTC,2449070.812500,27.2836,-96.9811,0011,-16.69,-27.77,32.3995,211.0062
1993-03-24 08:00:00 UTC,2449070.833333,27.2836,-96.9811,0011,-16.30,-27.13,31.6501,210.9979
1993-03-24 08:30:00 UTC,2449070.854167,27.2836,-96.9811,0011,-14.88,-24.76,28.8872,211.0046
1993-03-24 09:00:00 UTC,2449070.875000,27.2836,-96.9811,0011,-12.26,-23.06,26.1165,207.9977
1993-03-24 09:30:00 UTC,2449070.895833,27.2836,-96.9811,0011,-11.95,-26.84,29.3801,204.0001
1993-03-24 10:00:00 UTC,2449070.916667,27.2836,-96.9811,0011,-17.21,-28.64,33.4131,211.0020
1993-03-24 10:30:00 UTC,2449070.937500,27.2836,-96.9811,0011,-17.29,-31.19,35.6617,209.0016
1993-03-24 11:00:00 UTC,2449070.958333,27.2836,-96.9811,0011,-18.63,-31.00,36.1673,211.0045
1993-03-24 11:30:00 UTC,2449070.979167,27.2836,-96.9811,0011,-21.55,-29.67,36.6703,215.9918
1993-03-24 12:00:00 UTC,2449071.000000,27.2836,-96.9811,0011,-21.03,-26.92,34.1606,217.9971
1993-03-24 12:30:00 UTC,2449071.020833,27.2836,-96.9811,0011,-18.64,-29.83,35.1750,212.0002
1993-03-24 13:00:00 UTC,2449071.041667,27.2836,-96.9811,0011,-17.85,-29.71,34.6599,210.9978
1993-03-24 13:30:00 UTC,2449071.062500,27.2836,-96.9811,0011,-17.34,-28.85,33.6600,211.0076
1993-03-24 14:00:00 UTC,2449071.083333,27.2836,-96.9811,0011,-15.83,-28.56,32.6537,208.9984
1993-03-24 14:30:00 UTC,2449071.104167,27.2836,-96.9811,0011,-16.92,-30.53,34.9051,208.9956
1993-03-24 15:00:00 UTC,2449071.125000,27.2836,-96.9811,0011,-16.27,-30.60,34.6565,207.9996
1993-03-24 15:30:00 UTC,2449071.145833,27.2836,-96.9811,0011,-13.98,-28.67,31.8969,205.9947
1993-03-24 16:00:00 UTC,2449071.166667,27.2836,-96.9811,0011,-14.54,-31.19,34.4126,204.9938
1993-03-24 16:30:00 UTC,2449071.187500,27.2836,-96.9811,0011,-15.29,-32.78,36.1706,205.0064
1993-03-24 17:00:00 UTC,2449071.208333,27.2836,-96.9811,0011,-16.35,-35.06,38.6850,205.0017
1993-03-24 17:30:00 UTC,2449071.229167,27.2836,-96.9811,0011,-18.06,-37.02,41.1903,206.0052
1993-03-24 18:00:00 UTC,2449071.250000,27.2836,-96.9811,0011,-20.10,-36.25,41.4496,209.0076
1993-03-24 18:30:00 UTC,2449071.270833,27.2836,-96.9811,0011,-21.35,-35.53,41.4512,211.0017
1993-03-24 19:00:00 UTC,2449071.291667,27.2836,-96.9811,0011,-20.76,-33.23,39.1818,211.9945
1993-03-24 19:30:00 UTC,2449071.312500,27.2836,-96.9811,0011,-18.02,-32.51,37.1702,208.9992
1993-03-24 20:00:00 UTC,2449071.333333,27.2836,-96.9811,0011,-15.07,-32.32,35.6607,204.9985
1993-03-24 20:30:00 UTC,2449071.354167,27.2836,-96.9811,0011,-15.61,-33.47,36.9312,205.0038
1993-03-24 21:00:00 UTC,2449071.375000,27.2836,-96.9811,0011,-16.96,-34.77,38.6858,206.0021
1993-03-24 21:30:00 UTC,2449071.395833,27.2836,-96.9811,0011,-18.04,-33.93,38.4277,207.9988
1993-03-24 22:00:00 UTC,2449071.416667,27.2836,-96.9811,0011,-18.16,-34.15,38.6783,208.0028
1993-03-24 22:30:00 UTC,2449071.437500,27.2836,-96.9811,0011,-21.09,-35.09,40.9402,211.0070
1993-03-24 23:00:00 UTC,2449071.458333,27.2836,-96.9811,0011,-21.30,-34.08,40.1888,212.0054
1993-03-24 23:30:00 UTC,2449071.479167,27.2836,-96.9811,0011,-22.77,-32.51,39.6910,215.0074
1993-03-25 00:00:00 UTC,2449071.500000,27.2836,-96.9811,0011,-23.39,-28.89,37.1716,218.9944
1993-03-25 00:30:00 UTC,2449071.520833,27.2836,-96.9811,0011,-22.60,-27.91,35.9128,218.9987
1993-03-25 01:00:00 UTC,2449071.541667,27.2836,-96.9811,0011,-23.39,-28.89,37.1716,218.9944
1993-03-25 01:30:00 UTC,2449071.562500,27.2836,-96.9811,0011,-25.67,-32.86,41.6981,217.9967
1993-03-25 02:00:00 UTC,2449071.583333,27.2836,-96.9811,0011,-25.54,-35.15,43.4490,216.0022
1993-03-25 02:30:00 UTC,2449071.604167,27.2836,-96.9811,0011,-24.64,-35.18,42.9507,215.0073
1993-03-25 03:00:00 UTC,2449071.625000,27.2836,-96.9811,0011,-24.06,-33.12,40.9368,215.9965
1993-03-25 03:30:00 UTC,2449071.645833,27.2836,-96.9811,0011,-23.77,-32.72,40.4427,215.9972
1993-03-25 04:00:00 UTC,2449071.666667,27.2836,-96.9811,0011,-23.97,-30.68,38.9336,218.0002
1993-03-25 04:30:00 UTC,2449071.687500,27.2836,-96.9811,0011,-24.81,-30.64,39.4252,218.9980
1993-03-25 05:00:00 UTC,2449071.708333,27.2836,-96.9811,0011,-24.34,-30.06,38.6787,218.9976
1993-03-25 05:30:00 UTC,2449071.729167,27.2836,-96.9811,0011,-24.06,-27.68,36.6751,220.9978
1993-03-25 06:00:00 UTC,2449071.750000,27.2836,-96.9811,0011,-24.33,-24.33,34.4078,225.0000
1993-03-25 06:30:00 UTC,2449071.770833,27.2836,-96.9811,0011,-23.98,-23.98,33.9128,225.0000
1993-03-25 07:00:00 UTC,2449071.791667,27.2836,-96.9811,0011,-24.83,-22.36,33.4140,227.9962
1993-03-25 07:30:00 UTC,2449071.812500,27.2836,-96.9811,0011,-24.45,-21.26,32.4005,228.9921
1993-03-25 08:00:00 UTC,2449071.833333,27.2836,-96.9811,0011,-22.96,-20.67,30.8935,228.0045
1993-03-25 08:30:00 UTC,2449071.854167,27.2836,-96.9811,0011,-22.96,-20.67,30.8935,228.0045
1993-03-25 09:00:00 UTC,2449071.875000,27.2836,-96.9811,0011,-21.31,-21.31,30.1369,225.0000
1993-03-25 09:30:00 UTC,2449071.895833,27.2836,-96.9811,0011,-20.17,-22.40,30.1428,222.0013
1993-03-25 10:00:00 UTC,2449071.916667,27.2836,-96.9811,0011,-20.93,-24.08,31.9047,220.9967
1993-03-25 10:30:00 UTC,2449071.937500,27.2836,-96.9811,0011,-19.78,-27.23,33.6559,215.9948
1993-03-25 11:00:00 UTC,2449071.958333,27.2836,-96.9811,0011,-18.50,-29.61,34.9142,211.9967
1993-03-25 11:30:00 UTC,2449071.979167,27.2836,-96.9811,0011,-17.54,-31.63,36.1678,209.0100
1993-03-25 12:00:00 UTC,2449072.000000,27.2836,-96.9811,0011,-16.04,-30.16,34.1600,208.0054
1993-03-25 12:30:00 UTC,2449072.020833,27.2836,-96.9811,0011,-14.98,-28.17,31.9053,208.0028
1993-03-25 13:00:00 UTC,2449072.041667,27.2836,-96.9811,0011,-11.01,-27.24,29.3809,202.0078
1993-03-25 13:30:00 UTC,2449072.062500,27.2836,-96.9811,0011,-10.98,-28.61,30.6446,200.9959
1993-03-25 14:00:00 UTC,2449072.083333,27.2836,-96.9811,0011,-10.30,-29.93,31.6527,198.9902
1993-03-25 14:30:00 UTC,2449072.104167,27.2836,-96.9811,0011,-12.61,-31.21,33.6612,202.0005
1993-03-25 15:00:00 UTC,2449072.125000,27.2836,-96.9811,0011,-12.15,-31.66,33.9113,200.9951
1993-03-25 15:30:00 UTC,2449072.145833,27.2836,-96.9811,0011,-13.55,-33.54,36.1737,201.9985
1993-03-25 16:00:00 UTC,2449072.166667,27.2836,-96.9811,0011,-17.81,-33.49,37.9312,208.0041
1993-03-25 16:30:00 UTC,2449072.187500,27.2836,-96.9811,0011,-17.92,-33.71,38.1771,207.9948
1993-03-25 17:00:00 UTC,2449072.208333,27.2836,-96.9811,0011,-16.96,-34.77,38.6858,206.0021
1993-03-25 17:30:00 UTC,2449072.229167,27.2836,-96.9811,0011,-17.18,-35.21,39.1778,206.0091
1993-03-25 18:00:00 UTC,2449072.250000,27.2836,-96.9811,0011,-16.77,-35.97,39.6872,204.9960
1993-03-25 18:30:00 UTC,2449072.270833,27.2836,-96.9811,0011,-16.55,-37.17,40.6880,204.0011
1993-03-25 19:00:00 UTC,2449072.291667,27.2836,-96.9811,0011,-17.30,-37.10,40.9353,205.0000
1993-03-25 19:30:00 UTC,2449072.312500,27.2836,-96.9811,0011,-18.75,-35.26,39.9353,208.0025
1993-03-25 20:00:00 UTC,2449072.333333,27.2836,-96.9811,0011,-18.39,-34.59,39.1747,207.9977
1993-03-25 20:30:00 UTC,2449072.354167,27.2836,-96.9811,0011,-19.92,-33.16,38.6832,210.9942
1993-03-25 21:00:00 UTC,2449072.375000,27.2836,-96.9811,0011,-19.54,-32.51,37.9304,211.0078
1993-03-25 21:30:00 UTC,2449072.395833,27.2836,-96.9811,0011,-19.14,-31.86,37.1672,210.9955
1993-03-25 22:00:00 UTC,2449072.416667,27.2836,-96.9811,0011,-18.90,-30.24,35.6604,212.0054
1993-03-25 22:30:00 UTC,2449072.437500,27.2836,-96.9811,0011,-18.20,-28.02,33.4120,213.0052
1993-03-25 23:00:00 UTC,2449072.458333,27.2836,-96.9811,0011,-18.87,-26.95,32.8995,214.9992
1993-03-25 23:30:00 UTC,2449072.479167,27.2836,-96.9811,0011,-18.44,-26.34,32.1532,214.9949
1993-03-26 00:00:00 UTC,2449072.500000,27.2836,-96.9811,0011,-17.24,-26.54,31.6479,213.0072
1993-03-26 00:30:00 UTC,2449072.520833,27.2836,-96.9811,0011,-16.82,-25.91,30.8908,212.9904
1993-03-26 01:00:00 UTC,2449072.541667,27.2836,-96.9811,0011,-15.71,-25.14,29.6450,212.0013
1993-03-26 01:30:00 UTC,2449072.562500,27.2836,-96.9811,0011,-15.46,-23.80,28.3805,213.0069
1993-03-26 02:00:00 UTC,2449072.583333,27.2836,-96.9811,0011,-15.32,-23.59,28.1281,213.0008
1993-03-26 02:30:00 UTC,2449072.604167,27.2836,-96.9811,0011,-15.32,-23.59,28.1281,213.0008
1993-03-26 03:00:00 UTC,2449072.625000,27.2836,-96.9811,0011,-14.10,-23.47,27.3798,210.9961
1993-03-26 03:30:00 UTC,2449072.645833,27.2836,-96.9811,0011,-14.23,-23.68,27.6267,211.0029
1993-03-26 04:00:00 UTC,2449072.666667,27.2836,-96.9811,0011,-13.84,-23.04,26.8773,210.9930
1993-03-26 04:30:00 UTC,2449072.687500,27.2836,-96.9811,0011,-13.32,-22.17,25.8637,210.9980
1993-03-26 05:00:00 UTC,2449072.708333,27.2836,-96.9811,0011,-13.31,-21.30,25.1166,212.0006
1993-03-26 05:30:00 UTC,2449072.729167,27.2836,-96.9811,0011,-13.27,-20.44,24.3698,212.9923
1993-03-26 06:00:00 UTC,2449072.750000,27.2836,-96.9811,0011,-14.02,-19.30,23.8548,215.9956
1993-03-26 06:30:00 UTC,2449072.770833,27.2836,-96.9811,0011,-14.38,-18.41,23.3605,217.9933
1993-03-26 07:00:00 UTC,2449072.791667,27.2836,-96.9811,0011,-15.07,-16.16,22.0964,223.0011
1993-03-26 07:30:00 UTC,2449072.812500,27.2836,-96.9811,0011,-14.29,-15.87,21.3556,222.0012
1993-03-26 08:00:00 UTC,2449072.833333,27.2836,-96.9811,0011,-13.70,-14.69,20.0870,223.0028
1993-03-26 08:30:00 UTC,2449072.854167,27.2836,-96.9811,0011,-14.03,-14.03,19.8414,225.0000
1993-03-26 09:00:00 UTC,2449072.875000,27.2836,-96.9811,0011,-13.50,-13.50,19.0919,225.0000
1993-03-26 09:30:00 UTC,2449072.895833,27.2836,-96.9811,0011,-13.32,-13.32,18.8373,225.0000
1993-03-26 10:00:00 UTC,2449072.916667,27.2836,-96.9811,0011,-12.17,-13.05,17.8441,223.0016
1993-03-26 10:30:00 UTC,2449072.937500,27.2836,-96.9811,0011,-11.94,-13.26,17.8435,222.0015
1993-03-26 11:00:00 UTC,2449072.958333,27.2836,-96.9811,0011,-11.54,-14.25,18.3367,219.0014
1993-03-26 11:30:00 UTC,2449072.979167,27.2836,-96.9811,0011,-11.44,-14.64,18.5796,218.0048
1993-03-26 12:00:00 UTC,2449073.000000,27.2836,-96.9811,0011,-10.40,-16.01,19.0914,213.0075
1993-03-26 12:30:00 UTC,2449073.020833,27.2836,-96.9811,0011,-10.26,-15.80,18.8390,212.9984
1993-03-26 13:00:00 UTC,2449073.041667,27.2836,-96.9811,0011,-9.01,-16.25,18.5807,209.0067
1993-03-26 13:30:00 UTC,2449073.062500,27.2836,-96.9811,0011,-7.34,-18.17,19.5965,201.9969
1993-03-26 14:00:00 UTC,2449073.083333,27.2836,-96.9811,0011,-4.74,-19.02,19.6017,193.9937
1993-03-26 14:30:00 UTC,2449073.104167,27.2836,-96.9811,0011,-1.64,-18.77,18.8415,184.9935
1993-03-26 15:00:00 UTC,2449073.125000,27.2836,-96.9811,0011,-0.34,-19.60,19.6029,180.9938
1993-03-26 15:30:00 UTC,2449073.145833,27.2836,-96.9811,0011,0.00,-20.34,20.3400,180.0000
1993-03-26 16:00:00 UTC,2449073.166667,27.2836,-96.9811,0011,1.47,-21.05,21.1013,176.0053
1993-03-26 16:30:00 UTC,2449073.187500,27.2836,-96.9811,0011,2.36,-22.49,22.6135,174.0096
1993-03-26 17:00:00 UTC,2449073.208333,27.2836,-96.9811,0011,1.22,-23.33,23.3619,177.0065
1993-03-26 17:30:00 UTC,2449073.229167,27.2836,-96.9811,0011,0.00,-23.61,23.6100,180.0000
1993-03-26 18:00:00 UTC,2449073.250000,27.2836,-96.9811,0011,0.00,-23.86,23.8600,180.0000
1993-03-26 18:30:00 UTC,2449073.270833,27.2836,-96.9811,0011,0.00,-25.12,25.1200,180.0000
1993-03-26 19:00:00 UTC,2449073.291667,27.2836,-96.9811,0011,0.00,-25.62,25.6200,180.0000
1993-03-26 19:30:00 UTC,2449073.312500,27.2836,-96.9811,0011,-1.34,-25.58,25.6151,182.9987
1993-03-26 20:00:00 UTC,2449073.333333,27.2836,-96.9811,0011,-1.34,-25.58,25.6151,182.9987
1993-03-26 20:30:00 UTC,2449073.354167,27.2836,-96.9811,0011,-1.37,-26.08,26.1160,183.0070
1993-03-26 21:00:00 UTC,2449073.375000,27.2836,-96.9811,0011,-1.35,-25.83,25.8653,182.9919
1993-03-26 21:30:00 UTC,2449073.395833,27.2836,-96.9811,0011,-1.37,-26.08,26.1160,183.0070
1993-03-26 22:00:00 UTC,2449073.416667,27.2836,-96.9811,0011,-1.34,-25.58,25.6151,182.9987
1993-03-26 22:30:00 UTC,2449073.437500,27.2836,-96.9811,0011,-1.77,-25.31,25.3718,184.0004
1993-03-26 23:00:00 UTC,2449073.458333,27.2836,-96.9811,0011,-1.79,-25.56,25.6226,184.0060
1993-03-26 23:30:00 UTC,2449073.479167,27.2836,-96.9811,0011,-1.39,-26.58,26.6163,182.9936
1993-03-27 00:00:00 UTC,2449073.500000,27.2836,-96.9811,0011,-1.43,-27.34,27.3774,182.9941
1993-03-27 00:30:00 UTC,2449073.520833,27.2836,-96.9811,0011,-1.43,-27.34,27.3774,182.9941
1993-03-27 01:00:00 UTC,2449073.541667,27.2836,-96.9811,0011,-1.46,-27.84,27.8783,183.0020
1993-03-27 01:30:00 UTC,2449073.562500,27.2836,-96.9811,0011,0.00,-28.38,28.3800,180.0000
1993-03-27 02:00:00 UTC,2449073.583333,27.2836,-96.9811,0011,1.01,-28.87,28.8877,177.9964
1993-03-27 02:30:00 UTC,2449073.604167,27.2836,-96.9811,0011,-1.53,-29.10,29.1402,183.0097
1993-03-27 03:00:00 UTC,2449073.625000,27.2836,-96.9811,0011,-2.52,-28.78,28.8901,185.0041
1993-03-27 03:30:00 UTC,2449073.645833,27.2836,-96.9811,0011,-2.61,-29.78,29.8942,185.0088
1993-03-27 04:00:00 UTC,2449073.666667,27.2836,-96.9811,0011,-1.60,-30.61,30.6518,182.9922
1993-03-27 04:30:00 UTC,2449073.687500,27.2836,-96.9811,0011,-0.53,-30.39,30.3946,180.9991
1993-03-27 05:00:00 UTC,2449073.708333,27.2836,-96.9811,0011,-1.58,-30.10,30.1414,183.0048
1993-03-27 05:30:00 UTC,2449073.729167,27.2836,-96.9811,0011,-2.03,-29.07,29.1408,183.9946
1993-03-27 06:00:00 UTC,2449073.750000,27.2836,-96.9811,0011,-4.93,-27.95,28.3815,190.0033
1993-03-27 06:30:00 UTC,2449073.770833,27.2836,-96.9811,0011,-5.80,-27.27,27.8800,192.0072
1993-03-27 07:00:00 UTC,2449073.791667,27.2836,-96.9811,0011,-7.28,-27.17,28.1284,194.9997
1993-03-27 07:30:00 UTC,2449073.812500,27.2836,-96.9811,0011,-8.77,-26.99,28.3791,198.0008
1993-03-27 08:00:00 UTC,2449073.833333,27.2836,-96.9811,0011,-10.82,-26.79,28.8925,201.9929
1993-03-27 08:30:00 UTC,2449073.854167,27.2836,-96.9811,0011,-11.64,-26.15,28.6236,203.9950
1993-03-27 09:00:00 UTC,2449073.875000,27.2836,-96.9811,0011,-10.44,-27.20,29.1347,200.9980
1993-03-27 09:30:00 UTC,2449073.895833,27.2836,-96.9811,0011,-11.10,-27.48,29.6371,201.9953
1993-03-27 10:00:00 UTC,2449073.916667,27.2836,-96.9811,0011,-12.16,-27.31,29.8948,204.0014
1993-03-27 10:30:00 UTC,2449073.937500,27.2836,-96.9811,0011,-12.42,-26.63,29.3839,205.0040
1993-03-27 11:00:00 UTC,2449073.958333,27.2836,-96.9811,0011,-12.10,-25.95,28.6324,204.9988
1993-03-27 11:30:00 UTC,2449073.979167,27.2836,-96.9811,0011,-10.35,-25.62,27.6316,201.9978
1993-03-27 12:00:00 UTC,2449074.000000,27.2836,-96.9811,0011,-10.63,-26.31,28.3763,202.0001
1993-03-27 12:30:00 UTC,2449074.020833,27.2836,-96.9811,0011,-9.90,-25.79,27.6249,201.0003
1993-03-27 13:00:00 UTC,2449074.041667,27.2836,-96.9811,0011,-8.23,-25.32,26.6240,198.0062
1993-03-27 13:30:00 UTC,2449074.062500,27.2836,-96.9811,0011,-6.26,-25.10,25.8689,194.0040
1993-03-27 14:00:00 UTC,2449074.083333,27.2836,-96.9811,0011,-6.26,-25.10,25.8689,194.0040
1993-03-27 14:30:00 UTC,2449074.104167,27.2836,-96.9811,0011,-6.50,-26.08,26.8778,193.9949
1993-03-27 15:00:00 UTC,2449074.125000,27.2836,-96.9811,0011,-6.56,-26.32,27.1252,193.9953
1993-03-27 15:30:00 UTC,2449074.145833,27.2836,-96.9811,0011,-6.96,-25.96,26.8768,195.0083
1993-03-27 16:00:00 UTC,2449074.166667,27.2836,-96.9811,0011,-5.08,-26.13,26.6192,191.0018
1993-03-27 16:30:00 UTC,2449074.187500,27.2836,-96.9811,0011,-4.75,-26.96,27.3752,189.9922
1993-03-27 17:00:00 UTC,2449074.208333,27.2836,-96.9811,0011,-3.40,-27.67,27.8781,187.0052
1993-03-27 17:30:00 UTC,2449074.229167,27.2836,-96.9811,0011,-2.03,-29.07,29.1408,183.9946
1993-03-27 18:00:00 UTC,2449074.250000,27.2836,-96.9811,0011,-2.50,-28.52,28.6294,185.0096
1993-03-27 18:30:00 UTC,2449074.270833,27.2836,-96.9811,0011,-2.47,-28.27,28.3777,184.9934
1993-03-27 19:00:00 UTC,2449074.291667,27.2836,-96.9811,0011,-0.51,-29.38,29.3844,180.9945
1993-03-27 19:30:00 UTC,2449074.312500,27.2836,-96.9811,0011,1.04,-29.87,29.8881,178.0059
1993-03-27 20:00:00 UTC,2449074.333333,27.2836,-96.9811,0011,1.02,-29.12,29.1379,177.9939
1993-03-27 20:30:00 UTC,2449074.354167,27.2836,-96.9811,0011,1.53,-29.10,29.1402,176.9903
1993-03-27 21:00:00 UTC,2449074.375000,27.2836,-96.9811,0011,1.01,-28.87,28.8877,177.9964
1993-03-27 21:30:00 UTC,2449074.395833,27.2836,-96.9811,0011,0.00,-28.13,28.1300,180.0000
1993-03-27 22:00:00 UTC,2449074.416667,27.2836,-96.9811,0011,0.94,-26.86,26.8764,177.9957
1993-03-27 22:30:00 UTC,2449074.437500,27.2836,-96.9811,0011,1.82,-26.06,26.1235,176.0050
1993-03-27 23:00:00 UTC,2449074.458333,27.2836,-96.9811,0011,2.65,-25.23,25.3688,174.0040
1993-03-27 23:30:00 UTC,2449074.479167,27.2836,-96.9811,0011,1.22,-23.33,23.3619,177.0065
1993-03-28 00:00:00 UTC,2449074.500000,27.2836,-96.9811,0011,0.00,-23.86,23.8600,180.0000
1993-03-28 00:30:00 UTC,2449074.520833,27.2836,-96.9811,0011,-1.25,-23.83,23.8628,183.0027
1993-03-28 01:00:00 UTC,2449074.541667,27.2836,-96.9811,0011,0.00,-25.12,25.1200,180.0000
1993-03-28 01:30:00 UTC,2449074.562500,27.2836,-96.9811,0011,0.96,-27.61,27.6267,178.0086
1993-03-28 02:00:00 UTC,2449074.583333,27.2836,-96.9811,0011,1.96,-28.06,28.1284,176.0043
1993-03-28 02:30:00 UTC,2449074.604167,27.2836,-96.9811,0011,-0.44,-25.37,25.3738,180.9936
1993-03-28 03:00:00 UTC,2449074.625000,27.2836,-96.9811,0011,0.81,-23.09,23.1042,177.9909
1993-03-28 03:30:00 UTC,2449074.645833,27.2836,-96.9811,0011,1.12,-21.32,21.3494,176.9928
1993-03-28 04:00:00 UTC,2449074.666667,27.2836,-96.9811,0011,1.01,-19.31,19.3364,177.0059
1993-03-28 04:30:00 UTC,2449074.687500,27.2836,-96.9811,0011,0.00,-18.84,18.8400,180.0000
1993-03-28 05:00:00 UTC,2449074.708333,27.2836,-96.9811,0011,0.60,-17.07,17.0805,177.9869
1993-03-28 05:30:00 UTC,2449074.729167,27.2836,-96.9811,0011,1.21,-17.29,17.3323,175.9968
1993-03-28 06:00:00 UTC,2449074.750000,27.2836,-96.9811,0011,2.11,-17.20,17.3289,173.0062
1993-03-28 06:30:00 UTC,2449074.770833,27.2836,-96.9811,0011,2.67,-16.87,17.0800,171.0064
1993-03-28 07:00:00 UTC,2449074.791667,27.2836,-96.9811,0011,2.36,-14.88,15.0660,170.9878
1993-03-28 07:30:00 UTC,2449074.812500,27.2836,-96.9811,0011,2.82,-13.26,13.5565,167.9938
1993-03-28 08:00:00 UTC,2449074.833333,27.2836,-96.9811,0011,3.96,-12.97,13.5611,163.0215
1993-03-28 08:30:00 UTC,2449074.854167,27.2836,-96.9811,0011,4.72,-12.98,13.8115,160.0169
1993-03-28 09:00:00 UTC,2449074.875000,27.2836,-96.9811,0011,4.11,-13.45,14.0639,163.0081
1993-03-28 09:30:00 UTC,2449074.895833,27.2836,-96.9811,0011,4.19,-13.69,14.3168,162.9826
1993-03-28 10:00:00 UTC,2449074.916667,27.2836,-96.9811,0011,4.11,-13.45,14.0639,163.0081
1993-03-28 10:30:00 UTC,2449074.937500,27.2836,-96.9811,0011,5.07,-14.72,15.5687,160.9948
1993-03-28 11:00:00 UTC,2449074.958333,27.2836,-96.9811,0011,5.97,-17.33,18.3295,160.9917
1993-03-28 11:30:00 UTC,2449074.979167,27.2836,-96.9811,0011,4.41,-14.41,15.0697,162.9839
1993-03-28 12:00:00 UTC,2449075.000000,27.2836,-96.9811,0011,5.62,-12.62,13.8148,155.9954
1993-03-28 12:30:00 UTC,2449075.020833,27.2836,-96.9811,0011,7.58,-11.24,13.5571,146.0052
1993-03-28 13:00:00 UTC,2449075.041667,27.2836,-96.9811,0011,9.59,-12.27,15.5731,141.9895
1993-03-28 13:30:00 UTC,2449075.062500,27.2836,-96.9811,0011,9.98,-13.24,16.5800,142.9919
1993-03-28 14:00:00 UTC,2449075.083333,27.2836,-96.9811,0011,10.35,-17.22,20.0911,148.9922
1993-03-28 14:30:00 UTC,2449075.104167,27.2836,-96.9811,0011,11.65,-19.38,22.6121,148.9884
1993-03-28 15:00:00 UTC,2449075.125000,27.2836,-96.9811,0011,10.72,-21.04,23.6136,153.0009
1993-03-28 15:30:00 UTC,2449075.145833,27.2836,-96.9811,0011,11.68,-27.51,29.8868,156.9952
1993-03-28 16:00:00 UTC,2449075.166667,27.2836,-96.9811,0011,13.35,-31.44,34.1569,156.9930
1993-03-28 16:30:00 UTC,2449075.187500,27.2836,-96.9811,0011,14.00,-31.44,34.4162,155.9969
1993-03-28 17:00:00 UTC,2449075.208333,27.2836,-96.9811,0011,14.61,-32.81,35.9158,155.9970
1993-03-28 17:30:00 UTC,2449075.229167,27.2836,-96.9811,0011,16.29,-33.41,37.1698,154.0071
1993-03-28 18:00:00 UTC,2449075.250000,27.2836,-96.9811,0011,16.74,-34.32,38.1849,153.9986
1993-03-28 18:30:00 UTC,2449075.270833,27.2836,-96.9811,0011,17.67,-34.69,38.9310,153.0071
1993-03-28 19:00:00 UTC,2449075.291667,27.2836,-96.9811,0011,15.53,-34.88,38.1811,155.9994
1993-03-28 19:30:00 UTC,2449075.312500,27.2836,-96.9811,0011,15.30,-31.38,34.9112,154.0074
1993-03-28 20:00:00 UTC,2449075.333333,27.2836,-96.9811,0011,16.27,-30.60,34.6565,152.0004
1993-03-28 20:30:00 UTC,2449075.354167,27.2836,-96.9811,0011,17.07,-28.42,33.1524,149.0096
1993-03-28 21:00:00 UTC,2449075.375000,27.2836,-96.9811,0011,18.90,-25.08,31.4041,142.9987
1993-03-28 21:30:00 UTC,2449075.395833,27.2836,-96.9811,0011,20.27,-23.31,30.8906,138.9903
1993-03-28 22:00:00 UTC,2449075.416667,27.2836,-96.9811,0011,19.54,-19.54,27.6337,135.0000
1993-03-28 22:30:00 UTC,2449075.437500,27.2836,-96.9811,0011,20.21,-18.84,27.6295,132.9907
1993-03-28 23:00:00 UTC,2449075.458333,27.2836,-96.9811,0011,20.10,-16.28,25.8660,129.0057
1993-03-28 23:30:00 UTC,2449075.479167,27.2836,-96.9811,0011,23.57,-17.13,29.1373,126.0086
1993-03-29 00:00:00 UTC,2449075.500000,27.2836,-96.9811,0011,24.23,-15.73,28.8882,122.9914
1993-03-29 00:30:00 UTC,2449075.520833,27.2836,-96.9811,0011,20.67,-12.42,24.1144,121.0004
1993-03-29 01:00:00 UTC,2449075.541667,27.2836,-96.9811,0011,17.35,-9.62,19.8385,119.0069
1993-03-29 01:30:00 UTC,2449075.562500,27.2836,-96.9811,0011,15.84,-6.40,17.0841,112.0007
1993-03-29 02:00:00 UTC,2449075.583333,27.2836,-96.9811,0011,16.25,-4.35,16.8222,104.9863
1993-03-29 02:30:00 UTC,2449075.604167,27.2836,-96.9811,0011,17.26,-3.35,17.5821,100.9840
1993-03-29 03:00:00 UTC,2449075.625000,27.2836,-96.9811,0011,18.02,-1.58,18.0891,95.0109
1993-03-29 03:30:00 UTC,2449075.645833,27.2836,-96.9811,0011,20.04,-1.40,20.0888,93.9962